Temperature
17 17 17 17 17 17 17 17 17 17 17 17 17 17 17 17 17 17 17 17 17 17 17 17 17 17 17 17 16 16 16 16 16 16 16 16 16 16 16 16 16 16 16
17 17 17 17 17 17 17 17 17 17 17 17 17 17 17 17 17 17 17 17 17 17 17 17 17 17 17 17 16 16 16 16 16 16 16 16 16 16 16 15 16 15 15
17 17 17 17 17 17 17 17 17 17 17 17 17 17 17 17 17 17 17 17 17 17 17 17 17 17 16 16 16 16 16 16 16 16 16 16 16 16 16 15 15 15 15
17 17 17 17 17 17 17 17 17 17 17 17 17 17 17 17 17 17 17 17 17 17 17 17 17 17 16 16 16 16 16 16 16 16 16 16 16 15 15 15 15 15 15
17 17 17 17 17 17 17 17 17 17 17 17 17 17 17 17 17 17 17 17 17 17 17 17 17 17 16 16 16 16 16 16 16 16 16 16 16 15 15 15 15 15 15
17 17 17 17 17 17 17 17 17 17 17 17 17 17 17 17 17 17 17 17 17 17 16 16 16 16 16 16 16 16 16 16 16 16 16 16 15 15 15 15 15 15 15
17 17 17 17 17 17 17 17 17 17 17 17 17 17 17 17 17 17 17 17 17 17 16 16 16 16 16 16 16 16 16 16 16 16 16 15 15 15 15 15 15 15 15
17 17 17 17 17 17 17 17 17 17 17 17 17 17 17 17 17 17 17 16 16 16 16 16 16 16 16 15 16 16 16 16 16 16 16 16 15 15 15 15 15 15 15
17 17 17 17 17 17 17 17 17 17 17 17 17 17 18 18 17 17 16 16 16 16 16 16 16 16 15 15 15 16 16 16 16 15 15 15 15 15 15 15 15 15 15
18 18 18 17 17 17 17 17 17 17 17 17 17 17 17 17 17 17 16 16 16 16 16 16 15 15 15 15 15 15 15 15 15 15 15 15 15 15 15 15 15 15 15
18 18 18 18 18 17 17 17 17 17 17 17 17 17 17 17 17 17 16 16 16 15 15 15 15 15 15 15 15 15 15 15 15 15 15 15 15 15 15 15 14 14 14
18 18 18 18 17 17 17 17 17 17 17 17 17 17 17 17 17 17 17 16 16 15 15 15 15 15 15 14 15 15 15 15 15 15 15 14 14 14 14 14 14 14 14
18 18 18 18 18 18 17 17 17 17 17 17 17 16 16 17 17 17 17 16 16 15 15 15 15 14 14 14 14 14 14 14 14 14 14 14 14 14 14 14 14 14 14
18 18 18 18 18 17 17 17 17 17 17 17 17 17 16 16 16 16 16 16 16 16 15 15 14 14 14 14 14 14 14 14 14 14 14 14 14 14 14 14 14 14 13
18 18 18 18 18 18 18 17 17 17 17 17 16 16 16 16 16 16 16 16 16 16 16 15 14 14 14 14 14 14 14 14 14 14 14 14 14 14 13 13 13 13 13
18 18 18 17 17 17 18 17 17 17 17 17 17 17 16 16 16 16 16 16 16 16 16 15 14 14 14 13 14 13 13 13 13 13 13 13 13 13 13 13 13 13 13
19 18 18 17 17 17 17 17 17 17 17 16 16 16 16 16 16 16 15 15 15 15 15 14 14 14 13 13 13 13 13 13 13 13 13 13 13 13 13 13 12 12 12
19 18 18 18 17 17 17 17 17 16 16 16 16 16 16 16 16 15 15 15 15 15 15 14 14 13 13 13 13 13 12 12 12 12 12 12 12 12 12 12 12 12 12
19 18 18 18 17 17 17 17 17 16 16 16 16 16 16 16 15 15 15 15 15 15 14 14 13 13 13 13 12 12 12 12 12 12 12 12 12 12 12 12 12 11 11
18 18 18 18 17 17 17 17 17 16 16 16 16 16 15 15 15 15 15 15 14 14 14 14 14 13 13 12 12 12 12 12 12 12 11 12 12 12 12 11 11 11 11
18 18 18 17 17 17 17 17 17 16 16 16 16 16 15 15 15 15 15 15 14 14 14 14 13 13 13 12 12 12 12 12 12 12 11 11 11 11 11 11 11 11 11
18 18 18 18 17 17 17 17 17 16 16 16 16 15 15 15 15 15 15 15 14 14 13 13 13 13 13 13 12 12 12 12 12 11 11 11 11 11 11 11 11 11 11
18 18 18 18 17 17 17 17 17 16 16 16 15 15 15 15 15 15 15 14 14 14 13 13 13 13 13 12 12 12 12 12 12 11 11 11 11 11 11 11 11 11 10
18 18 18 18 17 17 17 17 17 16 16 15 15 15 15 14 14 14 14 14 14 14 13 13 13 13 12 12 12 12 12 11 11 11 11 11 11 11 11 11 11 11 10
18 18 17 17 17 17 17 17 16 16 15 15 15 15 14 14 14 14 14 13 13 13 13 13 13 12 12 12 12 12 11 11 12 12 11 11 11 11 11 11 11 11 10
17 17 17 17 17 17 16 16 16 16 15 15 15 14 14 14 14 14 13 13 13 13 13 13 12 12 12 12 12 11 11 11 12 12 11 11 11 11 11 11 10 10 10
Wind_Speed
4 5 4 4 5 5 5 4 4 4 3 3 3 3 3 3 3 3 6 9 8 7 7 7 7 8 8 8 8 7 7 8 8 9 9 9 9 9 9 9 9 8 8
4 4 4 4 4 4 4 4 4 4 3 3 2 2 2 2 3 2 4 8 9 8 7 7 7 7 7 7 8 8 7 7 8 9 9 9 9 9 9 9 9 9 9
4 4 4 3 4 4 4 4 3 3 3 3 3 2 2 2 2 2 2 3 7 9 8 7 7 7 7 6 7 7 7 7 8 9 9 9 9 9 9 9 9 9 9
4 3 3 3 4 3 3 3 3 2 2 2 2 1 1 2 2 2 3 3 3 4 7 7 7 7 7 6 6 7 8 8 9 10 10 9 10 10 10 11 11 10 10
3 3 2 3 3 3 3 3 3 2 2 2 2 2 1 2 2 2 2 2 3 3 4 7 7 6 7 7 7 6 7 8 9 10 10 10 11 11 11 11 12 12 11
3 3 3 3 3 3 3 2 2 2 2 2 1 1 0 1 1 1 2 2 2 3 3 3 4 5 6 5 5 5 5 6 7 9 10 11 11 11 11 12 12 12 12
4 3 2 4 3 2 2 3 3 4 3 2 2 1 1 1 1 1 1 1 1 1 1 1 2 2 4 6 4 4 4 4 5 6 7 9 10 10 11 12 12 12 12
3 4 3 3 3 3 3 3 3 2 3 3 2 2 2 2 2 2 2 2 1 1 1 1 1 1 0 2 4 3 2 3 3 4 4 5 6 7 8 9 10 12 12
3 2 2 2 2 3 3 3 4 4 3 3 3 2 2 1 1 2 2 2 1 1 1 2 2 2 1 1 2 3 2 1 0 1 2 2 3 5 6 7 8 8 9
3 3 3 3 3 3 3 4 4 4 4 4 3 2 2 1 2 2 2 2 1 1 1 1 2 2 2 2 3 5 4 3 2 1 1 1 1 2 3 4 6 6 7
3 3 3 3 3 3 3 3 2 4 4 4 3 3 2 3 3 2 2 2 1 1 1 1 1 1 2 2 3 5 5 4 3 3 2 1 1 0 1 2 3 4 5
2 3 3 2 3 2 2 3 3 4 4 3 3 3 3 3 3 2 2 2 2 1 1 1 1 0 1 2 4 6 5 5 4 4 3 2 2 1 1 1 1 2 2
2 3 2 2 2 2 3 3 3 3 4 4 4 4 3 3 3 3 3 2 2 1 2 2 1 1 1 2 4 5 6 5 5 4 4 3 3 2 2 2 2 2 1
2 3 3 3 2 2 2 2 2 3 3 4 4 4 3 3 3 3 3 3 2 2 2 2 2 2 1 2 4 3 5 5 4 4 4 4 4 3 3 3 4 3 3
3 4 4 3 3 3 2 2 2 2 3 4 4 4 4 3 3 3 3 4 3 3 3 3 3 2 3 3 3 3 3 5 5 4 3 3 4 3 3 4 4 4 4
3 4 4 4 3 3 3 3 3 2 3 3 3 3 3 3 3 3 4 4 4 4 3 2 2 3 2 3 4 3 4 6 5 4 3 3 3 3 3 3 4 4 4
5 5 5 4 4 4 3 3 3 3 3 3 3 3 3 3 3 3 3 3 3 3 3 2 2 2 2 2 3 3 4 4 4 5 4 3 3 3 3 3 3 3 3
6 6 5 5 5 4 4 4 4 3 3 3 3 3 3 3 4 3 3 3 3 3 4 3 3 3 3 4 4 4 4 4 3 7 5 4 3 3 3 3 3 3 3
6 5 5 5 4 4 4 5 4 4 4 4 3 3 3 3 4 3 3 3 3 4 4 4 4 3 3 4 4 4 3 3 4 6 7 6 5 4 3 3 3 3 3
6 6 5 5 4 4 4 4 4 4 4 4 3 3 3 4 4 4 4 4 3 4 4 5 4 4 4 5 5 4 4 4 4 4 4 5 6 7 6 5 4 3 3
6 6 5 5 5 5 4 4 5 5 4 4 3 3 3 2 2 3 3 4 4 5 5 5 5 4 5 5 5 5 4 4 4 3 4 5 6 6 7 8 7 6 6
6 6 6 6 6 5 3 3 5 5 5 5 4 4 4 4 3 3 2 3 4 6 6 6 6 6 6 6 5 5 4 4 4 4 4 4 4 4 5 5 7 8 8
7 6 6 7 7 5 6 6 6 5 5 5 5 4 4 3 5 4 5 6 5 5 6 7 6 6 6 6 6 7 6 6 4 3 4 5 4 4 5 5 10 10 9
7 7 7 7 7 6 8 7 6 7 6 5 6 5 4 4 3 4 5 5 5 6 6 6 5 5 5 5 6 7 6 6 5 5 5 5 4 4 5 5 11 12 12
7 7 7 7 7 6 7 7 7 6 6 6 6 5 5 5 3 4 5 5 5 4 4 3 3 3 3 5 6 6 6 6 6 6 5 6 5 4 5 5 8 13 14
7 7 7 7 7 6 7 8 8 6 6 6 5 6 5 5 4 5 6 5 6 5 4 5 5 6 7 8 10 8 7 7 6 5 4 5 5 4 5 5 5 7 10
Wind_Direction
127 125 122 128 132 132 142 136 120 121 127 135 137 136 133 135 134 143 139 151 164 174 180 183 187 190 191 194 197 198 202 203 201 199 202 205 207 208 209 209 207 206 207
124 132 139 137 134 134 129 136 135 138 141 131 136 126 138 135 120 143 150 159 171 180 185 188 194 195 197 202 202 203 210 209 207 207 209 211 213 213 212 212 211 211 212
129 144 139 149 134 134 141 148 142 151 154 150 148 146 156 139 129 136 148 162 168 174 181 190 198 203 205 210 212 209 209 205 207 209 211 212 214 215 215 215 216 217 218
142 153 141 140 140 159 161 156 172 161 149 154 156 165 146 153 165 169 172 167 165 166 173 185 197 206 211 217 221 218 214 211 213 213 214 216 218 219 220 220 219 220 222
155 165 148 138 171 170 175 189 156 175 159 157 170 163 184 173 170 173 161 175 167 177 170 166 186 202 212 219 224 224 219 215 215 214 216 221 225 223 224 223 222 222 224
162 164 155 156 177 172 175 172 158 175 184 186 193 106 143 184 190 169 192 185 182 187 189 177 186 184 191 209 220 226 231 226 222 221 223 225 227 227 226 226 226 227 227
160 172 169 153 180 177 182 174 179 178 184 169 179 161 150 139 134 147 143 136 141 149 176 180 212 194 176 176 188 216 233 240 241 235 232 230 231 231 232 233 230 230 230
177 173 173 184 178 180 185 182 186 209 197 191 206 208 195 164 132 106 124 135 110 117 137 125 81 52 281 159 129 160 217 244 244 234 217 219 227 231 232 235 234 232 232
171 173 181 200 191 208 197 200 203 211 214 207 221 240 233 185 151 142 131 114 109 88 120 113 103 79 57 68 105 117 126 151 207 224 209 220 230 233 235 233 231 232 231
179 184 192 201 208 214 206 215 203 217 223 217 202 235 261 248 226 177 162 142 127 130 137 123 97 87 68 79 78 72 82 72 67 73 84 149 204 225 234 235 237 239 241
186 188 189 195 207 217 215 227 213 226 225 236 228 213 203 199 227 237 208 187 175 159 130 129 97 87 84 87 96 82 87 86 84 76 70 60 54 238 240 249 250 247 241
182 178 188 199 214 226 222 220 222 220 229 233 238 230 229 227 220 224 224 213 196 156 147 137 156 135 110 97 86 85 91 90 86 79 71 58 48 41 19 310 268 236 220
178 170 183 190 207 212 226 229 220 232 225 221 226 232 241 250 238 236 223 214 220 197 185 184 182 173 122 109 107 108 100 96 92 85 79 71 63 58 48 47 58 88 117
187 171 181 184 187 198 208 210 231 227 219 225 230 233 239 241 233 228 234 230 227 216 195 173 162 162 119 129 115 147 119 114 107 94 82 73 68 66 63 70 76 76 76
186 176 184 185 188 195 203 205 218 230 217 221 222 218 229 227 233 236 233 236 241 238 221 185 184 165 172 146 143 153 132 123 124 111 92 82 79 80 78 78 81 83 85
184 184 192 195 198 200 201 214 209 211 215 219 230 234 234 234 230 230 234 235 240 245 239 182 187 181 170 158 153 164 147 141 133 129 116 109 106 105 101 98 100 101 102
185 189 195 201 205 208 207 212 223 212 216 219 224 222 226 242 240 232 229 232 231 229 222 191 170 160 173 192 170 185 175 179 150 148 147 136 125 123 122 119 115 109 106
187 187 193 199 205 207 209 211 219 215 222 229 231 230 232 225 231 238 233 229 226 226 220 199 198 189 198 194 191 200 189 195 177 149 160 158 151 147 142 131 122 117 115
187 187 191 196 201 208 214 216 217 220 228 233 233 238 242 233 233 228 234 227 222 218 214 209 201 197 202 198 199 206 201 212 212 166 173 175 173 168 156 143 138 135 134
187 188 190 195 198 207 216 223 222 222 222 225 229 233 239 235 231 228 226 228 224 218 210 212 201 198 199 202 208 210 208 205 219 202 192 183 179 181 176 176 174 174 174
192 188 193 201 202 205 216 224 226 218 214 216 222 230 234 236 259 249 241 226 218 221 214 211 207 208 206 201 210 215 216 214 210 218 218 201 193 196 189 193 197 197 192
198 194 201 207 210 210 165 217 248 224 213 213 219 223 216 202 194 206 250 253 243 227 222 220 215 213 212 212 212 213 214 220 223 206 223 224 216 215 207 202 180 185 194
199 201 206 210 215 198 172 200 238 233 221 221 224 229 235 211 204 208 206 214 228 240 244 242 232 225 217 214 214 213 214 227 238 211 225 237 229 235 227 187 168 185 196
206 204 207 212 214 200 181 200 222 227 227 227 230 232 233 231 228 220 216 217 220 222 231 238 237 238 225 211 215 221 223 230 238 215 220 247 239 246 238 200 177 192 203
215 212 209 214 216 200 178 189 212 220 221 227 230 229 229 224 204 237 226 222 219 216 205 205 223 225 219 208 218 223 218 228 235 221 212 241 247 249 240 222 195 195 204
216 217 214 214 213 209 178 187 211 223 222 225 225 225 222 225 195 219 227 224 223 222 212 196 201 209 212 208 209 223 226 234 242 240 205 228 242 241 242 226 213 203 210
Height
1551 1552 1553 1554 1556 1557 1558 1559 1560 1561 1562 1563 1564 1565 1566 1567 1567 1568 1568 1567 1568 1568 1569 1570 1571 1572 1573 1573 1574 1575 1575 1576 1576 1577 1578 1578 1579 1580 1580 1581 1582 1582 1582
1552 1553 1554 1555 1557 1558 1559 1560 1561 1562 1562 1564 1564 1565 1566 1566 1566 1567 1568 1568 1568 1568 1569 1570 1570 1571 1572 1572 1573 1573 1574 1575 1575 1576 1576 1577 1578 1578 1579 1579 1580 1580 1581
1552 1553 1555 1556 1557 1558 1559 1560 1561 1562 1563 1564 1564 1565 1565 1566 1566 1566 1567 1568 1568 1568 1568 1569 1570 1570 1571 1571 1572 1572 1573 1573 1574 1574 1575 1575 1576 1576 1577 1577 1578 1578 1579
1552 1554 1555 1556 1557 1558 1559 1560 1561 1562 1563 1563 1564 1565 1565 1565 1565 1566 1567 1567 1567 1568 1568 1568 1569 1569 1569 1570 1570 1571 1571 1571 1572 1572 1573 1573 1574 1574 1574 1575 1575 1576 1576
1553 1554 1555 1556 1557 1558 1559 1560 1561 1561 1562 1563 1563 1564 1564 1565 1565 1565 1566 1566 1566 1567 1567 1567 1567 1568 1568 1568 1569 1569 1569 1570 1570 1570 1570 1571 1571 1571 1571 1572 1572 1573 1573
1552 1554 1555 1555 1556 1557 1558 1559 1559 1560 1561 1561 1563 1563 1563 1564 1564 1564 1565 1565 1565 1566 1566 1566 1566 1566 1566 1566 1567 1567 1567 1567 1568 1568 1568 1568 1568 1568 1569 1569 1569 1570 1570
1552 1553 1554 1555 1555 1557 1557 1558 1558 1559 1560 1560 1561 1562 1562 1563 1563 1563 1563 1564 1564 1564 1564 1564 1565 1565 1565 1564 1564 1565 1565 1565 1565 1565 1565 1565 1565 1565 1565 1566 1566 1566 1567
1552 1553 1553 1555 1555 1555 1556 1557 1557 1558 1559 1559 1560 1560 1561 1563 1561 1562 1562 1562 1563 1563 1563 1563 1563 1563 1563 1563 1562 1562 1562 1562 1562 1562 1562 1562 1562 1562 1562 1562 1562 1562 1563
1551 1552 1552 1553 1554 1555 1555 1555 1556 1556 1557 1558 1558 1560 1560 1560 1561 1561 1561 1561 1561 1562 1562 1562 1561 1561 1561 1561 1561 1560 1560 1560 1560 1559 1559 1559 1559 1559 1559 1559 1559 1559 1559
1550 1551 1552 1552 1553 1553 1553 1554 1555 1555 1556 1556 1557 1557 1558 1558 1559 1560 1561 1560 1560 1560 1560 1560 1560 1560 1560 1559 1559 1558 1558 1558 1557 1557 1557 1556 1556 1556 1556 1556 1556 1556 1556
1550 1550 1551 1551 1551 1552 1552 1552 1552 1553 1554 1555 1555 1556 1556 1556 1557 1558 1558 1559 1559 1559 1558 1559 1559 1559 1558 1558 1557 1557 1556 1556 1555 1555 1555 1554 1554 1554 1553 1553 1553 1553 1552
1549 1550 1550 1550 1550 1551 1550 1550 1551 1551 1552 1552 1553 1554 1555 1555 1555 1556 1556 1556 1557 1557 1557 1557 1557 1557 1557 1557 1556 1555 1555 1554 1554 1553 1553 1552 1552 1551 1551 1550 1550 1550 1549
1549 1548 1549 1549 1549 1549 1549 1549 1549 1549 1549 1550 1550 1551 1552 1553 1553 1554 1554 1554 1555 1555 1555 1555 1556 1556 1556 1555 1554 1554 1553 1553 1552 1552 1551 1550 1550 1549 1549 1548 1548 1547 1547
1547 1547 1547 1547 1548 1548 1548 1547 1547 1547 1547 1548 1549 1549 1550 1550 1551 1551 1552 1552 1552 1553 1553 1553 1554 1554 1554 1553 1552 1552 1552 1551 1551 1550 1549 1549 1548 1547 1546 1546 1545 1545 1545
1545 1545 1546 1546 1546 1546 1546 1546 1546 1546 1546 1546 1547 1547 1547 1548 1548 1549 1549 1550 1551 1550 1551 1551 1551 1551 1552 1551 1551 1551 1550 1549 1549 1548 1548 1547 1546 1545 1545 1544 1543 1543 1543
1543 1544 1545 1545 1545 1545 1545 1545 1545 1544 1544 1544 1545 1545 1545 1546 1546 1547 1547 1547 1548 1549 1548 1548 1548 1549 1549 1550 1549 1549 1548 1548 1547 1547 1546 1545 1544 1544 1543 1542 1542 1541 1541
1541 1542 1543 1543 1544 1544 1544 1543 1544 1543 1543 1543 1543 1543 1543 1543 1544 1544 1545 1545 1545 1545 1546 1546 1546 1546 1547 1547 1547 1547 1547 1546 1546 1545 1544 1543 1543 1542 1541 1541 1540 1540 1540
1539 1540 1540 1541 1541 1542 1542 1541 1542 1542 1542 1541 1541 1541 1541 1541 1541 1542 1542 1542 1542 1542 1543 1543 1543 1544 1544 1544 1544 1545 1545 1545 1545 1543 1543 1542 1541 1541 1540 1539 1539 1538 1538
1537 1538 1538 1539 1539 1539 1539 1539 1539 1539 1540 1540 1539 1539 1539 1539 1539 1539 1540 1540 1540 1540 1540 1541 1540 1541 1541 1542 1542 1543 1543 1542 1543 1542 1541 1540 1540 1539 1539 1538 1538 1537 1537
1535 1535 1536 1536 1536 1537 1537 1537 1537 1537 1537 1537 1537 1537 1537 1537 1536 1537 1537 1537 1537 1537 1537 1537 1537 1537 1538 1539 1539 1540 1540 1540 1540 1541 1539 1539 1538 1537 1537 1536 1536 1535 1535
1532 1532 1533 1533 1533 1533 1534 1534 1534 1534 1534 1534 1534 1534 1534 1533 1533 1533 1534 1534 1534 1534 1534 1534 1534 1534 1535 1535 1536 1537 1538 1538 1538 1538 1538 1537 1536 1536 1535 1534 1534 1533 1533
1528 1528 1529 1530 1530 1530 1530 1531 1531 1531 1531 1531 1531 1531 1531 1530 1530 1530 1530 1530 1530 1530 1531 1531 1531 1531 1531 1532 1533 1533 1534 1535 1535 1536 1535 1535 1535 1535 1533 1533 1532 1531 1531
1525 1525 1526 1527 1527 1526 1527 1528 1528 1528 1528 1528 1528 1528 1529 1528 1527 1526 1526 1526 1527 1527 1527 1528 1528 1527 1528 1528 1529 1530 1530 1531 1532 1532 1532 1532 1532 1532 1532 1530 1529 1529 1529
1521 1522 1522 1523 1523 1523 1524 1524 1525 1525 1525 1525 1525 1525 1525 1524 1524 1523 1523 1523 1523 1523 1523 1524 1524 1524 1524 1524 1525 1527 1527 1528 1528 1528 1528 1529 1529 1529 1529 1528 1526 1526 1526
1517 1518 1518 1519 1520 1520 1520 1521 1521 1521 1521 1522 1522 1521 1521 1520 1520 1520 1520 1519 1519 1519 1519 1519 1520 1520 1520 1521 1522 1523 1524 1524 1525 1525 1525 1525 1525 1525 1525 1524 1523 1523 1523
1513 1514 1514 1515 1515 1516 1516 1516 1517 1518 1518 1518 1517 1517 1516 1516 1516 1516 1516 1516 1516 1516 1516 1515 1516 1516 1517 1517 1518 1519 1520 1520 1521 1521 1521 1521 1522 1522 1521 1521 1521 1519 1519